| time (UTC) | temp F | wind direction | speed MPH | gust MPH | rain 1hr in | rain 24hr in | rain mn in | humidity % | barometer mb |
| 20260504050352 | 63 | 118 | 4.0 | 9.0 | 0.00 | 0.00 | 0.00 | 68 | |
| 20260504045849 | 63 | 146 | 1.0 | 10.0 | 0.00 | 0.00 | 0.00 | 68 | |
| 20260504045344 | 63 | 171 | 5.0 | 6.0 | 0.00 | 0.00 | 0.00 | 68 | |
| 20260504044841 | 63 | 147 | 4.0 | 8.0 | 0.00 | 0.00 | 0.00 | 68 | |
| 20260504044338 | 63 | 214 | 6.0 | 7.0 | 0.00 | 0.00 | 0.00 | 68 | |
| 20260504043836 | 62 | 149 | 1.0 | 8.0 | 0.00 | 0.00 | 0.00 | 67 | |
| 20260504043332 | 62 | 193 | 4.0 | 7.0 | 0.00 | 0.00 | 0.00 | 67 | |
| 20260504042830 | 62 | 159 | 5.0 | 6.0 | 0.00 | 0.00 | 0.00 | 67 | |
| 20260504042326 | 62 | 177 | 4.0 | 7.0 | 0.00 | 0.00 | 0.00 | 66 | |
| 20260504041822 | 62 | 148 | 2.0 | 8.0 | 0.00 | 0.00 | 0.00 | 66 | |
| 20260504041319 | 62 | 178 | 3.0 | 5.0 | 0.00 | 0.00 | 0.00 | 65 | |
| 20260504040815 | 63 | 164 | 3.0 | 5.0 | 0.00 | 0.00 | 0.00 | 65 | |
| 20260504040313 | 63 | 174 | 3.0 | 6.0 | 0.00 | 0.00 | 0.00 | 64 | |
| 20260504035808 | 63 | 178 | 4.0 | 6.0 | 0.00 | 0.00 | 0.00 | 64 | |
| 20260504035306 | 64 | 165 | 3.0 | 6.0 | 0.00 | 0.00 | 0.00 | 63 | |
| 20260504034803 | 64 | 161 | 5.0 | 9.0 | 0.00 | 0.00 | 0.00 | 62 | |
| 20260504034300 | 64 | 142 | 2.0 | 7.0 | 0.00 | 0.00 | 0.00 | 61 | |
| 20260504033752 | 64 | 183 | 4.0 | 7.0 | 0.00 | 0.00 | 0.00 | 61 | |
| 20260504033249 | 63 | 194 | 3.0 | 7.0 | 0.00 | 0.00 | 0.00 | 62 | |
| 20260504032746 | 63 | 172 | 3.0 | 5.0 | 0.00 | 0.00 | 0.00 | 63 | |
| 20260504032243 | 63 | 179 | 3.0 | 3.0 | 0.00 | 0.00 | 0.00 | 63 | |
| 20260504031740 | 63 | 160 | 2.0 | 3.0 | 0.00 | 0.00 | 0.00 | 63 | |
| 20260504031238 | 63 | 137 | 0.0 | 0.0 | 0.00 | 0.00 | 0.00 | 64 | |
| 20260504030733 | 63 | 147 | 0.0 | 0.0 | 0.00 | 0.00 | 0.00 | 63 | |
| 20260504030230 | 63 | 137 | 0.0 | 0.0 | 0.00 | 0.00 | 0.00 | 63 | |
| 20260504025727 | 64 | 151 | 0.0 | 0.0 | 0.00 | 0.00 | 0.00 | 63 | |
| 20260504025223 | 64 | 150 | 0.0 | 0.0 | 0.00 | 0.00 | 0.00 | 62 | |
| 20260504024721 | 64 | 161 | 0.0 | 1.0 | 0.00 | 0.00 | 0.00 | 62 | |
| 20260504024217 | 64 | 148 | 0.0 | 2.0 | 0.00 | 0.00 | 0.00 | 61 | |
| 20260504023714 | 64 | 155 | 2.0 | 3.0 | 0.00 | 0.00 | 0.00 | 61 | |
| 20260504023210 | 65 | 158 | 1.0 | 2.0 | 0.00 | 0.00 | 0.00 | 61 | |
| 20260504022706 | 65 | 154 | 2.0 | 3.0 | 0.00 | 0.00 | 0.00 | 60 | |
| 20260504022202 | 65 | 172 | 2.0 | 3.0 | 0.00 | 0.00 | 0.00 | 59 | |
| 20260504021700 | 65 | 160 | 1.0 | 2.0 | 0.00 | 0.00 | 0.00 | 59 | |
| 20260504021156 | 66 | 143 | 1.0 | 2.0 | 0.00 | 0.00 | 0.00 | 58 | |
| 20260504020654 | 66 | 166 | 0.0 | 1.0 | 0.00 | 0.00 | 0.00 | 58 | |
| 20260504020150 | 66 | 162 | 1.0 | 2.0 | 0.00 | 0.00 | 0.00 | 57 | |
| 20260504015647 | 67 | 165 | 1.0 | 2.0 | 0.00 | 0.00 | 0.00 | 56 | |
| 20260504015143 | 67 | 154 | 0.0 | 1.0 | 0.00 | 0.00 | 0.00 | 56 | |
| 20260504014638 | 67 | 165 | 1.0 | 2.0 | 0.00 | 0.00 | 0.00 | 54 | |
| 20260504014136 | 68 | 173 | 2.0 | 3.0 | 0.00 | 0.00 | 0.00 | 53 | |
| 20260504013634 | 68 | 173 | 2.0 | 2.0 | 0.00 | 0.00 | 0.00 | 52 | |
| 20260504013130 | 69 | 149 | 1.0 | 3.0 | 0.00 | 0.00 | 0.00 | 51 | |
| 20260504012627 | 69 | 171 | 2.0 | 3.0 | 0.00 | 0.00 | 0.00 | 51 | |
| 20260504012125 | 69 | 180 | 2.0 | 3.0 | 0.00 | 0.00 | 0.00 | 50 | |
| 20260504011622 | 70 | 161 | 3.0 | 5.0 | 0.00 | 0.00 | 0.00 | 48 | |
| 20260504011119 | 71 | 157 | 2.0 | 3.0 | 0.00 | 0.00 | 0.00 | 47 | |
| 20260504010614 | 71 | 158 | 1.0 | 2.0 | 0.00 | 0.00 | 0.00 | 46 | |
| 20260504010110 | 72 | 167 | 2.0 | 5.0 | 0.00 | 0.00 | 0.00 | 45 | |
| 20260504005607 | 72 | 135 | 5.0 | 6.0 | 0.00 | 0.00 | 0.00 | 44 | |
| 20260504005104 | 73 | 150 | 3.0 | 6.0 | 0.00 | 0.00 | 0.00 | 44 | |
| 20260504004602 | 73 | 187 | 3.0 | 8.0 | 0.00 | 0.00 | 0.00 | 43 | |
| 20260504004059 | 73 | 170 | 7.0 | 10.0 | 0.00 | 0.00 | 0.00 | 42 | |
| 20260504003555 | 73 | 184 | 5.0 | 7.0 | 0.00 | 0.00 | 0.00 | 43 | |
| 20260504003052 | 73 | 205 | 4.0 | 9.0 | 0.00 | 0.00 | 0.00 | 42 | |
| 20260504002549 | 74 | 188 | 7.0 | 9.0 | 0.00 | 0.00 | 0.00 | 42 | |
| 20260504002047 | 75 | 211 | 8.0 | 10.0 | 0.00 | 0.00 | 0.00 | 41 | |
| 20260504001544 | 75 | 128 | 8.0 | 10.0 | 0.00 | 0.00 | 0.00 | 40 | |
| 20260504001040 | 75 | 154 | 6.0 | 9.0 | 0.00 | 0.00 | 0.00 | 40 | |
| 20260504000537 | 75 | 166 | 5.0 | 11.0 | 0.00 | 0.00 | 0.00 | 39 | |
| 20260504000035 | 75 | 186 | 3.0 | 7.0 | 0.00 | 0.00 | 0.00 | 39 | |
| 20260503235533 | 75 | 196 | 7.0 | 11.0 | 0.00 | 0.00 | 0.00 | 39 | |
| 20260503235029 | 75 | 151 | 8.0 | 10.0 | 0.00 | 0.00 | 0.00 | 38 | |
| 20260503234527 | 75 | 112 | 9.0 | 13.0 | 0.00 | 0.00 | 0.00 | 37 | |
| 20260503234026 | 76 | 197 | 11.0 | 14.0 | 0.00 | 0.00 | 0.00 | 36 | |
| 20260503233521 | 76 | 216 | 10.0 | 11.0 | 0.00 | 0.00 | 0.00 | 37 | |
| 20260503233017 | 77 | 197 | 4.0 | 10.0 | 0.00 | 0.00 | 0.00 | 38 | |
| 20260503232514 | 77 | 167 | 2.0 | 11.0 | 0.00 | 0.00 | 0.00 | 37 | |
| 20260503232012 | 77 | 182 | 12.0 | 13.0 | 0.00 | 0.00 | 0.00 | 36 | |
| 20260503231510 | 77 | 176 | 8.0 | 17.0 | 0.00 | 0.00 | 0.00 | 36 | |
| 20260503231006 | 76 | 118 | 8.0 | 13.0 | 0.00 | 0.00 | 0.00 | 37 | |
| 20260503230503 | 77 | 221 | 5.0 | 9.0 | 0.00 | 0.00 | 0.00 | 38 | |
| 20260503230000 | 77 | 203 | 8.0 | 11.0 | 0.00 | 0.00 | 0.00 | 36 | |
| 20260503225457 | 77 | 109 | 5.0 | 14.0 | 0.00 | 0.00 | 0.00 | 37 | |
| 20260503224952 | 77 | 193 | 8.0 | 11.0 | 0.00 | 0.00 | 0.00 | 37 | |
| 20260503224449 | 77 | 159 | 7.0 | 9.0 | 0.00 | 0.00 | 0.00 | 37 | |
| 20260503223947 | 76 | 202 | 3.0 | 9.0 | 0.00 | 0.00 | 0.00 | 38 | |
| 20260503223445 | 76 | 128 | 8.0 | 10.0 | 0.00 | 0.00 | 0.00 | 37 | |
| 20260503222940 | 77 | 214 | 5.0 | 13.0 | 0.00 | 0.00 | 0.00 | 36 | |
| 20260503222439 | 77 | 172 | 3.0 | 7.0 | 0.00 | 0.00 | 0.00 | 35 | |
| 20260503221937 | 77 | 174 | 9.0 | 14.0 | 0.00 | 0.00 | 0.00 | 36 | |
| 20260503221435 | 78 | 178 | 8.0 | 14.0 | 0.00 | 0.00 | 0.00 | 36 | |
| 20260503220931 | 78 | 197 | 7.0 | 8.0 | 0.00 | 0.00 | 0.00 | 33 | |
| 20260503220428 | 78 | 203 | 6.0 | 9.0 | 0.00 | 0.00 | 0.00 | 35 | |
| 20260503215925 | 78 | 167 | 11.0 | 16.0 | 0.00 | 0.00 | 0.00 | 31 | |
| 20260503215422 | 78 | 190 | 7.0 | 10.0 | 0.00 | 0.00 | 0.00 | 33 | |
| 20260503214919 | 78 | 163 | 11.0 | 13.0 | 0.00 | 0.00 | 0.00 | 34 | |
| 20260503214417 | 78 | 186 | 8.0 | 11.0 | 0.00 | 0.00 | 0.00 | 35 | |
| 20260503213914 | 78 | 110 | 3.0 | 10.0 | 0.00 | 0.00 | 0.00 | 35 | |
| 20260503213412 | 78 | 181 | 7.0 | 17.0 | 0.00 | 0.00 | 0.00 | 35 | |
| 20260503212908 | 78 | 174 | 12.0 | 15.0 | 0.00 | 0.00 | 0.00 | 35 | |
| 20260503212406 | 78 | 211 | 10.0 | 13.0 | 0.00 | 0.00 | 0.00 | 35 | |
| 20260503211903 | 78 | 178 | 10.0 | 13.0 | 0.00 | 0.00 | 0.00 | 36 | |
| 20260503211400 | 77 | 178 | 7.0 | 11.0 | 0.00 | 0.00 | 0.00 | 36 | |
| 20260503210855 | 78 | 135 | 10.0 | 14.0 | 0.00 | 0.00 | 0.00 | 35 | |
| 20260503210353 | 78 | 192 | 9.0 | 14.0 | 0.00 | 0.00 | 0.00 | 35 | |
| 20260503205847 | 78 | 225 | 5.0 | 8.0 | 0.00 | 0.00 | 0.00 | 36 | |
| 20260503205344 | 78 | 169 | 7.0 | 16.0 | 0.00 | 0.00 | 0.00 | 36 | |
| 20260503204840 | 78 | 171 | 4.0 | 10.0 | 0.00 | 0.00 | 0.00 | 36 | |
| 20260503204338 | 77 | 187 | 7.0 | 15.0 | 0.00 | 0.00 | 0.00 | 36 | |
| 20260503203835 | 77 | 179 | 14.0 | 18.0 | 0.00 | 0.00 | 0.00 | 35 | |
| 20260503203332 | 78 | 171 | 7.0 | 14.0 | 0.00 | 0.00 | 0.00 | 35 | |
| 20260503202829 | 77 | 165 | 10.0 | 14.0 | 0.00 | 0.00 | 0.00 | 35 | |
| 20260503202327 | 77 | 211 | 4.0 | 9.0 | 0.00 | 0.00 | 0.00 | 37 | |
| 20260503201826 | 77 | 186 | 13.0 | 16.0 | 0.00 | 0.00 | 0.00 | 34 | |
| 20260503201322 | 77 | 203 | 8.0 | 14.0 | 0.00 | 0.00 | 0.00 | 37 | |
| 20260503200820 | 76 | 137 | 12.0 | 17.0 | 0.00 | 0.00 | 0.00 | 37 | |
| 20260503200315 | 76 | 142 | 5.0 | 10.0 | 0.00 | 0.00 | 0.00 | 36 | |
| 20260503195813 | 76 | 128 | 6.0 | 9.0 | 0.00 | 0.00 | 0.00 | 37 | |
| 20260503195309 | 76 | 136 | 13.0 | 20.0 | 0.00 | 0.00 | 0.00 | 37 | |
| 20260503194807 | 77 | 95 | 11.0 | 14.0 | 0.00 | 0.00 | 0.00 | 36 | |
| 20260503194302 | 77 | 148 | 11.0 | 14.0 | 0.00 | 0.00 | 0.00 | 34 | |
| 20260503193759 | 77 | 226 | 6.0 | 8.0 | 0.00 | 0.00 | 0.00 | 35 | |
| 20260503193255 | 77 | 154 | 10.0 | 14.0 | 0.00 | 0.00 | 0.00 | 34 | |
| 20260503192750 | 76 | 162 | 6.0 | 13.0 | 0.00 | 0.00 | 0.00 | 35 | |
| 20260503192245 | 77 | 141 | 11.0 | 15.0 | 0.00 | 0.00 | 0.00 | 34 | |
| 20260503191743 | 77 | 129 | 11.0 | 13.0 | 0.00 | 0.00 | 0.00 | 34 | |
| 20260503191240 | 77 | 232 | 6.0 | 8.0 | 0.00 | 0.00 | 0.00 | 37 | |
| 20260503190737 | 76 | 157 | 9.0 | 11.0 | 0.00 | 0.00 | 0.00 | 35 | |
| 20260503190234 | 77 | 127 | 12.0 | 14.0 | 0.00 | 0.00 | 0.00 | 34 | |
| 20260503185731 | 77 | 118 | 6.0 | 15.0 | 0.00 | 0.00 | 0.00 | 35 | |
| 20260503185226 | 77 | 241 | 4.0 | 8.0 | 0.00 | 0.00 | 0.00 | 38 | |
| 20260503184721 | 76 | 160 | 12.0 | 18.0 | 0.00 | 0.00 | 0.00 | 33 | |
| 20260503184218 | 77 | 180 | 6.0 | 13.0 | 0.00 | 0.00 | 0.00 | 38 | |
| 20260503183714 | 77 | 120 | 7.0 | 15.0 | 0.00 | 0.00 | 0.00 | 35 | |
| 20260503183211 | 77 | 198 | 7.0 | 14.0 | 0.00 | 0.00 | 0.00 | 35 | |
| 20260503182709 | 77 | 135 | 4.0 | 11.0 | 0.00 | 0.00 | 0.00 | 35 | |
| 20260503182208 | 76 | 114 | 7.0 | 14.0 | 0.00 | 0.00 | 0.00 | 37 | |
| 20260503181704 | 76 | 135 | 11.0 | 15.0 | 0.00 | 0.00 | 0.00 | 36 | |
| 20260503181201 | 76 | 105 | 7.0 | 14.0 | 0.00 | 0.00 | 0.00 | 34 | |
| 20260503180657 | 76 | 214 | 5.0 | 8.0 | 0.00 | 0.00 | 0.00 | 37 | |
| 20260503180156 | 75 | 142 | 5.0 | 14.0 | 0.00 | 0.00 | 0.00 | 35 | |
| 20260503175652 | 75 | 123 | 10.0 | 13.0 | 0.00 | 0.00 | 0.00 | 35 | |
| 20260503175150 | 76 | 157 | 11.0 | 14.0 | 0.00 | 0.00 | 0.00 | 36 | |
| 20260503174646 | 75 | 137 | 4.0 | 9.0 | 0.00 | 0.00 | 0.00 | 36 | |
| 20260503174143 | 76 | 190 | 11.0 | 16.0 | 0.00 | 0.00 | 0.00 | 33 | |
| 20260503173638 | 75 | 218 | 7.0 | 10.0 | 0.00 | 0.00 | 0.00 | 38 | |
| 20260503173135 | 76 | 144 | 8.0 | 13.0 | 0.00 | 0.00 | 0.00 | 36 | |
| 20260503172632 | 75 | 189 | 4.0 | 7.0 | 0.00 | 0.00 | 0.00 | 37 | |
| 20260503172130 | 74 | 190 | 9.0 | 13.0 | 0.00 | 0.00 | 0.00 | 38 | |
| 20260503171626 | 75 | 141 | 6.0 | 11.0 | 0.00 | 0.00 | 0.00 | 37 | |
| 20260503171123 | 74 | 233 | 8.0 | 15.0 | 0.00 | 0.00 | 0.00 | 38 | |
| 20260503170620 | 74 | 187 | 9.0 | 13.0 | 0.00 | 0.00 | 0.00 | 41 | |
| 20260503170117 | 74 | 174 | 6.0 | 9.0 | 0.00 | 0.00 | 0.00 | 40 | |
| 20260503151012 | 70 | 191 | 5.0 | 14.0 | 0.00 | 0.00 | 0.00 | 49 | |
| 20260503150509 | 70 | 179 | 5.0 | 9.0 | 0.00 | 0.00 | 0.00 | 51 | |
| 20260503131402 | 60 | 57 | 0.0 | 0.0 | 0.00 | 0.00 | 0.00 | 73 | |
| 20260503130859 | 60 | 57 | 0.0 | 0.0 | 0.00 | 0.00 | 0.00 | 74 | |
| 20260503130356 | 58 | 57 | 0.0 | 0.0 | 0.00 | 0.00 | 0.00 | 77 | |
| 20260503110750 | 47 | 82 | 0.0 | 0.0 | 0.00 | 0.00 | 0.00 | 93 | |
| 20260503110247 | 48 | 82 | 0.0 | 0.0 | 0.00 | 0.00 | 0.00 | 94 | |
| 20260503100213 | 48 | 82 | 0.0 | 0.0 | 0.00 | 0.00 | 0.00 | 93 | |
| 20260503090138 | 51 | 82 | 0.0 | 0.0 | 0.00 | 0.00 | 0.00 | 89 | |
| 20260503081608 | 50 | 82 | 0.0 | 0.0 | 0.00 | 0.00 | 0.00 | 88 | |
| 20260503081105 | 51 | 82 | 0.0 | 0.0 | 0.00 | 0.00 | 0.00 | 87 | |
| 20260503080600 | 51 | 82 | 0.0 | 0.0 | 0.00 | 0.00 | 0.00 | 88 | |
| 20260503072539 | 50 | 82 | 0.0 | 0.0 | 0.00 | 0.00 | 0.00 | 91 | |
| 20260503072037 | 50 | 82 | 0.0 | 0.0 | 0.00 | 0.00 | 0.00 | 91 | |
| 20260503071533 | 50 | 82 | 0.0 | 0.0 | 0.00 | 0.00 | 0.00 | 90 | |
| 20260503071030 | 50 | 82 | 0.0 | 0.0 | 0.00 | 0.00 | 0.00 | 89 | |
| 20260503070526 | 51 | 82 | 0.0 | 0.0 | 0.00 | 0.00 | 0.00 | 89 | |
| 20260503054945 | 52 | 82 | 0.0 | 0.0 | 0.00 | 0.00 | 0.00 | 89 | |
| 20260503054441 | 52 | 82 | 0.0 | 0.0 | 0.00 | 0.00 | 0.00 | 89 | |
| 20260503053939 | 52 | 82 | 0.0 | 0.0 | 0.00 | 0.00 | 0.00 | 89 | |
| 20260503053437 | 52 | 82 | 0.0 | 0.0 | 0.00 | 0.00 | 0.00 | 89 | |
| 20260503052933 | 53 | 82 | 0.0 | 0.0 | 0.00 | 0.00 | 0.00 | 88 | |
| 20260503052431 | 52 | 82 | 0.0 | 0.0 | 0.00 | 0.00 | 0.00 | 88 | |
| 20260503051927 | 52 | 82 | 0.0 | 0.0 | 0.00 | 0.00 | 0.00 | 89 |